�N����,����,����,����,����,�C��,���x,�~����,�S�V����,�ő�u�ԕ���,,,,,
,,,,,,,,,����,����,����,�N��,,
yyyy/mm/dd,hh:mm:ss,(16),16����,m/s,��,%,mm,KW/�u,(16),16����,m/s,Time,,
2021/4/1,1:00:00,13,���k��,2.5,2.4,88.2,0,0,13,���k��,2.7,58,,
2021/4/1,2:00:00,13,���k��,1.9,0.3,93.7,0,0,13,���k��,2.7,52,,
2021/4/1,3:00:00,13,���k��,2.4,0.9,90.5,0,0,13,���k��,2.9,57,,
2021/4/1,4:00:00,13,���k��,2.3,-1.1,95.9,0,0,13,���k��,2.7,3,,
2021/4/1,5:00:00,12,��,2.5,0.3,95.2,0,0,13,���k��,3.2,30,,
2021/4/1,6:00:00,13,���k��,2.2,2,92.2,0,0.03,13,���k��,3.4,59,,
2021/4/1,7:00:00,13,���k��,2.1,5.5,72.3,0,0.21,13,���k��,3.6,2,,
2021/4/1,8:00:00,14,�k��,2.2,9.1,59.3,0,0.43,14,�k��,3.7,28,,
2021/4/1,9:00:00,7,��쓌,1.4,11.2,49.6,0,0.64,6,�쓌,3.5,59,,
2021/4/1,10:00:00,7,��쓌,3.9,11.1,50.7,0,0.79,7,��쓌,6,43,,
2021/4/1,11:00:00,7,��쓌,4.3,10.2,51.4,0,0.88,7,��쓌,7.1,54,,
2021/4/1,12:00:00,8,��,4,9.7,51.2,0,0.91,7,��쓌,7.1,33,,
2021/4/1,13:00:00,8,��,4.7,10.2,52,0,0.88,8,��,7,29,,
2021/4/1,14:00:00,8,��,4,9.9,53.8,0,0.78,7,��쓌,7.6,34,,
2021/4/1,15:00:00,7,��쓌,2.9,9.8,58.6,0,0.63,8,��,6.9,3,,
2021/4/1,16:00:00,8,��,2.4,9.8,57.2,0,0.48,7,��쓌,5.1,20,,
2021/4/1,17:00:00,7,��쓌,1.3,7.5,64.5,0,0.23,7,��쓌,3.6,21,,
2021/4/1,18:00:00,3,���k��,0.5,4.6,73.5,0,0.04,6,�쓌,1.9,0,,
2021/4/1,19:00:00,2,�k��,3.4,4.3,89.6,0,0,3,���k��,5.4,40,,
2021/4/1,20:00:00,1,�k�k��,3,3.7,88,0,0,2,�k��,5.4,2,,
2021/4/1,21:00:00,2,�k��,2.8,2.6,92.7,0,0,1,�k�k��,4.2,39,,
2021/4/1,22:00:00,1,�k�k��,2.1,1.7,96.9,0,0,1,�k�k��,3.8,0,,
2021/4/1,23:00:00,15,�k�k��,1.5,-0.6,100,0,0,1,�k�k��,3.3,1,,
2021/4/1,0:00:00,15,�k�k��,0.7,-3.1,99.2,0,0,1,�k�k��,3.7,8,,
2021/4/2,1:00:00,14,�k��,2.1,0.5,100,0,0,14,�k��,3.2,49,,
2021/4/2,2:00:00,13,���k��,1.9,-2.4,99.4,0,0,14,�k��,2.8,33,,
2021/4/2,3:00:00,13,���k��,1.8,-2.2,99.6,0,0,13,���k��,3.1,39,,
2021/4/2,4:00:00,13,���k��,2.3,-2.8,98.9,0,0,13,���k��,2.9,51,,
2021/4/2,5:00:00,12,��,1.3,-2.4,99.7,0,0,15,�k�k��,2.3,18,,
2021/4/2,6:00:00,12,��,1.2,-1.3,98.1,0,0.06,12,��,2.8,10,,
2021/4/2,7:00:00,13,���k��,1,3.5,82.8,0,0.27,12,��,2.5,21,,
2021/4/2,8:00:00,7.1,��쓌,67.5,0,0.48,,,,,,,,
2021/4/2,9:00:00,6,�쓌,2,7.9,65,0,0.63,6,�쓌,3.6,9,,
2021/4/2,10:00:00,7,��쓌,3,8.5,59.9,0,0.8,6,�쓌,5.5,57,,
2021/4/2,11:00:00,7,��쓌,4.2,7.8,60.7,0,0.89,8,��,6.4,55,,
2021/4/2,12:00:00,8,��,4.1,7.7,60.4,0,0.93,8,��,6.8,45,,
2021/4/2,13:00:00,8,��,4.6,8.4,53,0,0.89,9,��쐼,7.1,59,,
2021/4/2,14:00:00,8,��,4,8.1,56.7,0,0.73,9,��쐼,7.9,47,,
2021/4/2,15:00:00,8,��,4,7.1,61.7,0,0.52,6,�쓌,7.1,0,,
2021/4/2,16:00:00,8,��,2.9,5.9,72.3,0,0.32,8,��,6.3,26,,
2021/4/2,17:00:00,7,��쓌,2.5,5.1,79.2,0,0.16,8,��,5.9,1,,
2021/4/2,18:00:00,7,��쓌,1.3,3.7,87,0,0.07,6,�쓌,4.4,4,,
2021/4/2,19:00:00,5,���쓌,0.9,2,93.6,0,0,6,�쓌,3.3,20,,
2021/4/2,20:00:00,5,���쓌,2,1.6,95.6,0,0,5,���쓌,3.6,54,,
2021/4/2,21:00:00,16,�É�,0.2,1,96.9,0,0,10,�쐼,13,28,,
2021/4/2,22:00:00,7,��쓌,1.7,3,95.5,0,0,7,��쓌,3.5,47,,
2021/4/2,23:00:00,7,��쓌,0.9,2.4,94.4,0,0,7,��쓌,3,24,,
2021/4/2,0:00:00,7,��쓌,0.3,2.7,96.6,0,0,11,���쐼,10.5,23,,
2021/4/3,1:00:00,4,��,1.5,1.5,98.8,0,0,7,��쓌,3.2,17,,
2021/4/3,2:00:00,14,�k��,0.3,-1.3,99.4,0,0,4,��,2.5,4,,
2021/4/3,3:00:00,11,���쐼,0.7,0.4,100,0,0,12,��,1.9,34,,
2021/4/3,4:00:00,12,��,1.9,1.2,100,0,0,13,���k��,2.9,56,,
2021/4/3,5:00:00,1,�k�k��,0.8,1.4,100,0,0,13,���k��,3.4,36,,
2021/4/3,6:00:00,13,���k��,2.5,0.8,100,0,0.04,13,���k��,4.7,56,,
2021/4/3,7:00:00,14,�k��,1.8,1.9,95.6,0,0.1,13,���k��,4.1,33,,
2021/4/3,8:00:00,15,�k�k��,1.7,3.1,90.2,0,0.14,15,�k�k��,3.9,18,,
2021/4/3,9:00:00,2,�k��,0.7,4.4,87.2,0,0.16,14,�k��,2.9,14,,
2021/4/3,10:00:00,4,��,1.1,5.5,84.1,0,0.2,3,���k��,2.5,25,,
2021/4/3,11:00:00,5,���쓌,1,5.6,83.9,0,0.21,4,��,2.4,28,,
2021/4/3,12:00:00,3,���k��,1,5.8,84.7,0,0.2,4,��,2.4,37,,
2021/4/3,13:00:00,7.6,��쓌,80,0,0.23,,,,,,,,
2021/4/3,14:00:00,8,��,2.6,7.6,78.8,0,0.27,8,��,4.4,59,,
2021/4/3,15:00:00,8,��,3.7,11.9,61.3,0,0.57,8,��,7.3,59,,
2021/4/3,16:00:00,7,��쓌,4.2,10.7,68.8,0,0.24,7,��쓌,8.3,9,,
2021/4/3,17:00:00,7,��쓌,2.4,10.9,72.7,0,0.15,7,��쓌,6.5,3,,
2021/4/3,18:00:00,10,�쐼,4.7,11.6,67.9,0,0.05,11,���쐼,8.6,27,,
2021/4/3,19:00:00,9,��쐼,3.6,11.4,67.7,0,0,9,��쐼,7.7,20,,
2021/4/3,20:00:00,9,��쐼,3.9,13.4,64.3,0,0,10,�쐼,7.5,33,,
2021/4/3,21:00:00,6,�쓌,3.9,11.2,72.2,0,0,6,�쓌,6.1,54,,
2021/4/3,22:00:00,6,�쓌,4.8,9.6,77,0,0,6,�쓌,7.5,26,,
2021/4/3,23:00:00,9,��쐼,4.7,11.7,72.9,0,0,8,��,7.9,58,,
2021/4/3,0:00:00,9,��쐼,5.3,11.6,77,0,0,9,��쐼,11.2,55,,
2021/4/4,1:00:00,9,��쐼,5,11.7,79.2,0,0,9,��쐼,10.6,15,,
2021/4/4,2:00:00,9,��쐼,4.6,11.5,79.5,0,0,8,��,9,39,,
2021/4/4,3:00:00,1,�k�k��,2.5,11.1,84.5,0,0,11,���쐼,6.5,5,,
2021/4/4,4:00:00,15,�k�k��,0.6,8,89.8,0,0,5,���쓌,4.5,35,,
2021/4/4,5:00:00,14,�k��,0.7,7.1,96.2,0,0,4,��,2,14,,
2021/4/4,6:00:00,16,�É�,0.1,7.3,98.4,0.5,0.01,12,��,7.1,22,,
2021/4/4,7:00:00,12,��,0.5,7.9,98.1,1,0.03,11,���쐼,3.9,11,,
2021/4/4,8:00:00,7.8,��쓌,97.3,1,0.05,,,,,,,,
2021/4/4,9:00:00,4,��,2.3,6.7,97.9,1.5,0.08,4,��,3.2,59,,
2021/4/4,10:00:00,2,�k��,2.7,6.2,97.2,1,0.1,2,�k��,5.9,42,,
2021/4/4,11:00:00,3,���k��,3,5.8,96.4,0.5,0.11,3,���k��,5.3,42,,
2021/4/4,12:00:00,3,���k��,3.4,5.4,96.7,0.5,0.18,3,���k��,6.2,29,,
2021/4/4,13:00:00,4,��,2.5,5.3,97.4,0,0.15,3,���k��,4.7,35,,
2021/4/4,14:00:00,4,��,1.7,5.2,97,0.5,0.14,2,�k��,4.7,13,,
2021/4/4,15:00:00,5,���쓌,2.7,4.2,96.7,0.5,0.11,4,��,5.3,36,,
2021/4/4,16:00:00,2,�k��,2,4.3,96,0.5,0.05,3,���k��,3.6,56,,
2021/4/4,17:00:00,16,�É�,0.2,4,96.2,1,0.02,3,���k��,2.5,0,,
2021/4/4,18:00:00,10,�쐼,0.9,3.6,98.4,1,0.01,8,��,2.2,28,,
2021/4/4,19:00:00,10,�쐼,1,3.7,99.5,0.5,0,9,��쐼,2,40,,
2021/4/4,20:00:00,5,���쓌,0.7,3.3,99.9,1,0,5,���쓌,2.1,23,,
2021/4/4,21:00:00,6,�쓌,1.2,2.8,100,1,0,5,���쓌,2,49,,
2021/4/4,22:00:00,3,���k��,1.5,2.8,100,0.5,0,2,�k��,2.1,48,,
2021/4/4,23:00:00,4,��,1.6,2.3,100,1.5,0,4,��,3.4,36,,
2021/4/4,0:00:00,4,��,1.3,1.6,100,0.5,0,4,��,3.6,11,,
2021/4/5,1:00:00,3,���k��,2,0.8,100,1,0,3,���k��,3.4,31,,
2021/4/5,2:00:00,16,�É�,0.2,0.5,100,0.5,0,3,���k��,2.8,3,,
2021/4/5,3:00:00,13,���k��,0.3,0.3,100,0.5,0,16,�k,2.5,8,,
2021/4/5,4:00:00,11,���쐼,0.8,0.4,100,0.5,0,11,���쐼,2.5,6,,
2021/4/5,5:00:00,16,�É�,0,0.6,100,0,0,10,�쐼,2,46,,
2021/4/5,6:00:00,14,�k��,1.8,1.4,100,0,0.03,14,�k��,3.5,59,,
2021/4/5,7:00:00,15,�k�k��,2.6,2.8,85.1,0,0.1,1,�k�k��,5.1,21,,
2021/4/5,8:00:00,16,�k,4.2,3.6,71.3,0,0.2,1,�k�k��,7.9,45,,
2021/4/5,9:00:00,16,�k,4.2,4.4,65.7,0,0.31,16,�k,9.4,33,,
2021/4/5,10:00:00,16,�k,4.1,5.3,54,0,0.52,16,�k,8.1,6,,
2021/4/5,11:00:00,16,�k,5.8,6.5,47.2,0,0.63,16,�k,8.5,56,,
2021/4/5,12:00:00,1,�k�k��,4.3,8.7,41.4,0,0.88,2,�k��,9.5,43,,
2021/4/5,13:00:00,2,�k��,5.1,7.2,47.4,0,0.91,2,�k��,10,40,,
2021/4/5,14:00:00,4,��,5.4,7.4,51.2,0,0.83,4,��,7.8,21,,
2021/4/5,15:00:00,4,��,4.8,7,45.1,0,0.68,4,��,8,8,,
2021/4/5,16:00:00,4,��,3.1,7.1,49.1,0,0.5,4,��,6.7,8,,
2021/4/5,17:00:00,3,���k��,2.6,5.8,54.1,0,0.29,4,��,4.6,12,,
2021/4/5,18:00:00,3,���k��,1.7,2.6,63.5,0,0.07,3,���k��,3.6,7,,
2021/4/5,19:00:00,16,�É�,0,-1,79.2,0,0,3,���k��,2.5,12,,
2021/4/5,20:00:00,13,���k��,1.2,-2.9,93.5,0,0,4,��,2.3,13,,
2021/4/5,21:00:00,13,���k��,1.8,-3.6,88.4,0,0,12,��,2.7,48,,
2021/4/5,22:00:00,12,��,1.3,-3.4,92.9,0,0,12,��,2.2,35,,
2021/4/5,23:00:00,11,���쐼,1.4,-4.3,96.9,0,0,13,���k��,2.5,45,,
2021/4/5,0:00:00,11,���쐼,2.1,-5.5,96.4,0,0,11,���쐼,2.6,22,,
2021/4/6,1:00:00,11,���쐼,2.1,-5,97.8,0,0,11,���쐼,3.1,13,,
2021/4/6,2:00:00,11,���쐼,2.4,-6.2,97.2,0,0,11,���쐼,2.6,51,,
2021/4/6,3:00:00,11,���쐼,2.4,-5.8,97.6,0,0,11,���쐼,2.8,57,,
2021/4/6,4:00:00,11,���쐼,1.9,-5.8,96.9,0,0,11,���쐼,2.6,55,,
2021/4/6,5:00:00,11,���쐼,2.1,-6,97.4,0,0,11,���쐼,2.7,41,,
2021/4/6,6:00:00,12,��,2.2,-4,97.7,0,0.08,12,��,2.9,33,,
2021/4/6,7:00:00,12,��,0.8,0.8,81.7,0,0.3,12,��,2.5,8,,
2021/4/6,8:00:00,8,��,0.4,3.8,48.9,0,0.52,5,���쓌,2.4,56,,
2021/4/6,9:00:00,5,���쓌,2.5,5.1,37.9,0,0.69,5,���쓌,4.3,43,,
2021/4/6,10:00:00,6,�쓌,3.4,4.8,44.2,0,0.83,6,�쓌,5,50,,
2021/4/6,11:00:00,6,�쓌,3.9,5.2,38,0,0.93,6,�쓌,6,54,,
2021/4/6,12:00:00,6,�쓌,4,4.8,45.8,0,0.89,6,�쓌,6.6,51,,
2021/4/6,13:00:00,6,�쓌,3.7,4.8,44,0,0.77,6,�쓌,6.7,46,,
2021/4/6,14:00:00,6,�쓌,4.4,3.9,61.2,0,0.68,6,�쓌,6.8,50,,
2021/4/6,15:00:00,7,��쓌,3.3,3.9,58.1,0,0.54,7,��쓌,6.8,8,,
2021/4/6,16:00:00,7,��쓌,3.3,3.2,66,0,0.39,9,��쐼,6.3,16,,
2021/4/6,17:00:00,7,��쓌,2.6,2.5,66.3,0,0.15,6,�쓌,5.4,57,,
2021/4/6,18:00:00,7,��쓌,1.8,1.8,61.8,0,0.04,7,��쓌,5,1,,
2021/4/6,19:00:00,7,��쓌,1.5,1.4,71.4,0,0,6,�쓌,3,3,,
2021/4/6,20:00:00,6,�쓌,0.9,0.4,75,0,0,7,��쓌,2.7,26,,
2021/4/6,21:00:00,13,���k��,0.7,-4.2,94,0,0,2,�k��,2.9,22,,
2021/4/6,22:00:00,10,�쐼,1.4,-4.7,95.1,0,0,7,��쓌,4.1,39,,
2021/4/6,23:00:00,10,�쐼,0.9,-3.9,94.4,0,0,10,�쐼,2.1,22,,
2021/4/6,0:00:00,10,�쐼,1,-4.8,96.6,0,0,10,�쐼,2.4,42,,
2021/4/7,1:00:00,5,���쓌,1.1,-5.8,98,0,0,6,�쓌,2.1,43,,
2021/4/7,2:00:00,5,���쓌,1.3,-5.6,97.3,0,0,6,�쓌,2.5,33,,
2021/4/7,3:00:00,7,��쓌,0.9,-4.4,94.9,0,0,6,�쓌,2.9,44,,
2021/4/7,4:00:00,13,���k��,1.3,-3.8,97.1,0,0,13,���k��,2,44,,
2021/4/7,5:00:00,13,���k��,1.5,-2.9,96.3,0,0,13,���k��,2.3,44,,
2021/4/7,6:00:00,14,�k��,0.8,-2.1,94.6,0,0.03,13,���k��,2.5,22,,
2021/4/7,7:00:00,13,���k��,0.5,-0.3,90.6,0,0.12,14,�k��,2.1,8,,
2021/4/7,8:00:00,1,�k�k��,1,2.3,79.5,0,0.31,15,�k�k��,2.8,15,,
2021/4/7,9:00:00,5,���쓌,4,3.5,65.2,0,0.53,5,���쓌,5.6,50,,
2021/4/7,10:00:00,6,�쓌,3.2,3.9,64.4,0,0.76,6,�쓌,6.9,58,,
2021/4/7,11:00:00,4,��,3.2,4,64.8,0,0.72,4,��,6.7,59,,
2021/4/7,12:00:00,5,���쓌,4.3,3.3,62,0,0.9,4,��,6.9,52,,
2021/4/7,13:00:00,6,�쓌,3.6,3.5,60.6,0,0.86,6,�쓌,6.4,58,,
2021/4/7,14:00:00,6,�쓌,3.6,3.2,65.6,0,0.73,5,���쓌,6.7,4,,
2021/4/7,15:00:00,6,�쓌,2.6,2.4,73,0,0.6,6,�쓌,6.6,12,,
2021/4/7,16:00:00,6,�쓌,3.3,2,74.8,0,0.39,5,���쓌,6.3,19,,
2021/4/7,17:00:00,7,��쓌,2,1.8,75.7,0,0.23,6,�쓌,4.9,4,,
2021/4/7,18:00:00,7,��쓌,1.5,0.7,82,0,0.05,8,��,3.9,5,,
2021/4/7,19:00:00,8,��,0.4,-0.7,88.5,0,0,8,��,3.3,8,,
2021/4/7,20:00:00,3,���k��,0.7,-2.5,91.9,0,0,6,�쓌,3.1,20,,
2021/4/7,21:00:00,16,�É�,0.2,-1.3,96.1,0,0,11,���쐼,1.7,54,,
2021/4/7,22:00:00,16,�É�,0.1,-0.4,92.7,0,0,14,�k��,2.8,24,,
2021/4/7,23:00:00,16,�É�,0,0.2,91.6,0,0,12,��,8.1,1,,
2021/4/7,0:00:00,12,��,1.3,0.7,89.6,0,0,15,�k�k��,3.1,20,,
2021/4/8,1:00:00,13,���k��,1.3,0.5,89,0,0,13,���k��,2.5,58,,
2021/4/8,2:00:00,14,�k��,1.1,0.2,90,0,0,13,���k��,2.6,40,,
2021/4/8,3:00:00,14,�k��,0.7,-0.8,91.9,0,0,13,���k��,2.5,22,,
2021/4/8,4:00:00,15,�k�k��,1.1,-1.4,96,0,0,14,�k��,3,45,,
2021/4/8,5:00:00,11,���쐼,1.4,-3.3,99.5,0,0,11,���쐼,2.5,47,,
2021/4/8,6:00:00,12,��,3.4,-0.4,94.5,0,0.08,13,���k��,4.5,58,,
2021/4/8,7:00:00,13,���k��,3,3.8,68.2,0,0.29,13,���k��,5,56,,
2021/4/8,8:00:00,15,�k�k��,2.8,6,50.2,0,0.51,13,���k��,6.1,14,,
2021/4/8,9:00:00,14,�k��,3.1,8.7,32.7,0,0.7,15,�k�k��,6.2,11,,
2021/4/8,10:00:00,10,�쐼,2.1,8.9,29.2,0,0.74,10,�쐼,6.3,49,,
2021/4/8,11:00:00,14,�k��,4.5,8.5,28.4,0,0.79,13,���k��,9,51,,
2021/4/8,12:00:00,15,�k�k��,7.2,5.2,47.9,0,0.25,16,�k,11.7,50,,
2021/4/8,13:00:00,15,�k�k��,7.8,5,38.9,0,0.35,15,�k�k��,16,58,,
2021/4/8,14:00:00,15,�k�k��,7.5,6.3,29.4,0,0.67,16,�k,15.4,44,,
2021/4/8,15:00:00,14,�k��,7.9,6.6,25.3,0,0.69,15,�k�k��,13.6,51,,
2021/4/8,16:00:00,14,�k��,6.1,5.8,23.7,0,0.42,15,�k�k��,11.6,3,,
2021/4/8,17:00:00,14,�k��,4.7,4.4,26.9,0,0.28,14,�k��,10.4,12,,
2021/4/8,18:00:00,12,��,2.5,1.7,37.2,0,0.06,15,�k�k��,7.4,4,,
2021/4/8,19:00:00,11,���쐼,1.8,-1.2,57.5,0,0,12,��,4.2,4,,
2021/4/8,20:00:00,16,�É�,0.2,-2.4,60.8,0,0,10,�쐼,3.3,15,,
2021/4/8,21:00:00,14,�k��,0.8,-5,71.7,0,0,11,���쐼,3.2,28,,
2021/4/8,22:00:00,13,���k��,2.2,-6.5,81.7,0,0,12,��,2.9,53,,
2021/4/8,23:00:00,13,���k��,2.6,-4.5,80.5,0,0,13,���k��,4.4,42,,
2021/4/8,0:00:00,14,�k��,1.5,-6.1,82.9,0,0,13,���k��,2.9,3,,
2021/4/9,1:00:00,13,���k��,1.1,-7.7,85.7,0,0,11,���쐼,3.7,10,,
2021/4/9,2:00:00,13,���k��,2.4,-7.2,88.7,0,0,13,���k��,2.8,57,,
2021/4/9,3:00:00,13,���k��,2.5,-7,88.4,0,0,14,�k��,3.4,7,,
2021/4/9,4:00:00,13,���k��,2.3,-9.1,91.8,0,0,13,���k��,2.9,59,,
2021/4/9,5:00:00,14,�k��,1.9,-8.6,91.8,0,0.01,13,���k��,3.2,13,,
2021/4/9,6:00:00,13,���k��,1.9,-5.4,90.5,0,0.09,12,��,3.2,59,,
2021/4/9,7:00:00,10,�쐼,0.3,0.5,63.5,0,0.31,3,���k��,8,55,,
2021/4/9,8:00:00,11,���쐼,0.4,2.9,43.8,0,0.54,14,�k��,3.6,15,,
2021/4/9,9:00:00,14,�k��,1,5.2,33.3,0,0.72,12,��,4.3,21,,
2021/4/9,10:00:00,7,��쓌,4.4,4.6,36.1,0,0.87,7,��쓌,7.7,31,,
2021/4/9,11:00:00,7,��쓌,3.8,5.7,40.2,0,0.92,8,��,6.8,28,,
2021/4/9,12:00:00,7,��쓌,3.8,5.4,36.2,0,0.77,6,�쓌,6.1,50,,
2021/4/9,13:00:00,8,��,2.9,5.1,39.1,0,0.54,6,�쓌,6.3,10,,
2021/4/9,14:00:00,10,�쐼,4.7,4.8,46.5,0,0.24,9,��쐼,8.4,56,,
2021/4/9,15:00:00,14,�k��,2.9,6.9,35.3,0,0.51,12,��,8.9,32,,
2021/4/9,16:00:00,11,���쐼,4.3,6.2,41.9,0,0.42,11,���쐼,7.7,51,,
2021/4/9,17:00:00,12,��,2.5,4.9,48.2,0,0.18,10,�쐼,7.5,28,,
2021/4/9,18:00:00,15,�k�k��,2.5,4.3,48,0,0.03,15,�k�k��,7,18,,
2021/4/9,19:00:00,1,�k�k��,2.9,3,54.7,0,0,1,�k�k��,5.8,1,,
2021/4/9,20:00:00,2,�k��,2.4,2.4,59.4,0,0,2,�k��,6.6,42,,
2021/4/9,21:00:00,2,�k��,1.4,0.8,84.9,0,0,1,�k�k��,4.9,3,,
2021/4/9,22:00:00,11,���쐼,1.1,-3.2,92.8,0,0,2,�k��,2.7,3,,
2021/4/9,23:00:00,16,�É�,0.2,-2.9,97.6,0,0,10,�쐼,2.4,25,,
2021/4/9,0:00:00,12,��,1.5,-3.4,94.3,0,0,13,���k��,2.7,20,,
2021/4/10,1:00:00,13,���k��,1.3,-3.4,96.9,0,0,13,���k��,3,21,,
2021/4/10,2:00:00,14,�k��,1.8,-5.4,95.1,0,0,14,�k��,3.4,50,,
2021/4/10,3:00:00,-6.1,#N/A,95,0,0,,,,,,,,
2021/4/10,4:00:00,13,���k��,2.3,-6.1,96.9,0,0,13,���k��,2.7,52,,
2021/4/10,5:00:00,13,���k��,2,-5.2,97,0,0.01,13,���k��,3.4,32,,
2021/4/10,6:00:00,-2.1,#N/A,89.1,0,0.1,,,,,,,,
2021/4/10,7:00:00,13,���k��,1.2,1.3,78,0,0.25,13,���k��,2.2,46,,
2021/4/10,8:00:00,7,��쓌,2.1,4.8,57.3,0,0.53,6,�쓌,3.2,58,,
2021/4/10,9:00:00,15,�k�k��,3.4,7.7,46.9,0,0.72,1,�k�k��,8.6,35,,
2021/4/10,10:00:00,7,��쓌,4,7.3,39.9,0,0.86,1,�k�k��,7,7,,
2021/4/10,11:00:00,7,��쓌,4.7,7.2,32.1,0,0.96,6,�쓌,8,24,,
2021/4/10,12:00:00,8,��,5.6,8.4,33,0,1,8,��,8.5,58,,
2021/4/10,13:00:00,8,��,5.5,8.5,33.9,0,0.79,7,��쓌,9.5,20,,
2021/4/10,14:00:00,7,��쓌,4.6,9.7,37.6,0,0.9,9,��쐼,8.8,38,,
2021/4/10,15:00:00,8,��,3.5,10.4,41.3,0,0.73,8,��,8.5,4,,
2021/4/10,16:00:00,8,��,3.2,10,35.9,0,0.44,9,��쐼,6.1,2,,
2021/4/10,17:00:00,6,�쓌,1.7,10,37.2,0,0.25,8,��,4.2,3,,
2021/4/10,18:00:00,15,�k�k��,3.5,9.1,32.6,0,0.08,16,�k,7.3,53,,
2021/4/10,19:00:00,14,�k��,2.8,7.6,37,0,0,15,�k�k��,6.9,6,,
2021/4/10,20:00:00,15,�k�k��,2.9,6.9,40.4,0,0,14,�k��,7.4,10,,
2021/4/10,21:00:00,14,�k��,1.7,5.1,42.8,0,0,14,�k��,6.2,1,,
2021/4/10,22:00:00,15,�k�k��,0.3,-1.1,58.9,0,0,14,�k��,3.6,28,,
2021/4/10,23:00:00,13,���k��,2.5,0.4,64.7,0,0,13,���k��,3.8,39,,
2021/4/10,0:00:00,1.5,�k�k��,55.8,0,0,,,,,,,,
2021/4/11,1:00:00,14,�k��,1.6,-3.1,76.1,0,0,13,���k��,2.2,22,,
2021/4/11,2:00:00,14,�k��,1.8,-3.9,83.7,0,0,13,���k��,2.8,37,,
2021/4/11,3:00:00,12,��,2,-5.3,86.5,0,0,12,��,2.6,40,,
2021/4/11,4:00:00,13,���k��,1.5,-2.7,83.8,0,0,14,�k��,2.5,30,,
2021/4/11,5:00:00,13,���k��,1.9,-3.6,86.4,0,0.01,14,�k��,3.1,22,,
2021/4/11,6:00:00,13,���k��,1.9,-2.3,88.6,0,0.08,13,���k��,3.6,45,,
2021/4/11,7:00:00,12,��,1.2,3.7,60.3,0,0.32,14,�k��,3.2,39,,
2021/4/11,8:00:00,9,��쐼,0.4,8.5,40.6,0,0.52,11,���쐼,3.7,49,,
2021/4/11,9:00:00,6,�쓌,3.4,8.7,32.1,0,0.67,7,��쓌,5,51,,
2021/4/11,10:00:00,7,��쓌,3.6,8.3,36.1,0,0.79,8,��,5.9,23,,
2021/4/11,11:00:00,8,��,4.8,8.6,41.1,0,0.95,7,��쓌,7.1,55,,
2021/4/11,12:00:00,7,��쓌,4.9,8.7,39.4,0,1,8,��,7.2,40,,
2021/4/11,13:00:00,7,��쓌,4,8.9,41.3,0,0.96,7,��쓌,7.3,10,,
2021/4/11,14:00:00,7,��쓌,3,9.3,40.5,0,0.85,7,��쓌,5.5,9,,
2021/4/11,15:00:00,8,��,3.3,11.6,37.9,0,0.7,8,��,5.6,58,,
2021/4/11,16:00:00,8,��,3.5,12.3,25.1,0,0.52,8,��,7.4,31,,
2021/4/11,17:00:00,8,��,2.5,10,48.2,0,0.3,7,��쓌,7.2,11,,
2021/4/11,18:00:00,2,�k��,1.6,5.6,71.2,0,0.08,8,��,3.4,0,,
2021/4/11,19:00:00,2,�k��,1.4,2.5,84.8,0,0,3,���k��,2.2,16,,
2021/4/11,20:00:00,16,�k,0.9,0.8,92,0,0,1,�k�k��,2.7,46,,
2021/4/11,21:00:00,13,���k��,0.4,-1.5,95,0,0,2,�k��,1.5,31,,
2021/4/11,22:00:00,14,�k��,0.9,-3.4,91,0,0,13,���k��,1.4,56,,
2021/4/11,23:00:00,11,���쐼,0.4,-4,93.6,0,0,12,��,2.3,28,,
2021/4/11,0:00:00,13,���k��,1.1,-4.5,96.9,0,0,13,���k��,5.1,6,,
2021/4/12,1:00:00,13,���k��,2.3,-4.2,97.4,0,0,13,���k��,3.3,47,,
2021/4/12,2:00:00,12,��,2.4,-5,99.3,0,0,12,��,3.6,55,,
2021/4/12,3:00:00,13,���k��,1.8,-3.7,96.4,0,0,13,���k��,3.7,24,,
2021/4/12,4:00:00,13,���k��,2.4,-4.7,96.5,0,0,13,���k��,3,47,,
2021/4/12,5:00:00,13,���k��,2,-4.6,96.2,0,0.01,13,���k��,3.1,31,,
2021/4/12,6:00:00,13,���k��,1.2,-1.1,92.3,0,0.1,14,�k��,4,45,,
2021/4/12,7:00:00,1,�k�k��,0.7,3.5,78.1,0,0.32,11,���쐼,2.7,33,,
2021/4/12,8:00:00,4,��,1.2,8.4,67,0,0.52,1,�k�k��,17.7,15,,
2021/4/12,9:00:00,5,���쓌,2.6,10.1,54.7,0,0.71,5,���쓌,3.7,56,,
2021/4/12,10:00:00,5,���쓌,2.6,10.2,53.6,0,0.86,4,��,4.2,55,,
2021/4/12,11:00:00,4,��,2.6,10.7,53.2,0,0.96,4,��,4.4,38,,
2021/4/12,12:00:00,5,���쓌,2.4,11.9,45.1,0,0.99,5,���쓌,4.1,21,,
2021/4/12,13:00:00,5,���쓌,2.2,13.9,43.2,0,0.94,5,���쓌,4.2,41,,
2021/4/12,14:00:00,8,��,4.9,16.4,27.2,0,0.84,8,��,7.6,51,,
2021/4/12,15:00:00,8,��,4.9,15.8,24.3,0,0.68,9,��쐼,10.8,10,,
2021/4/12,16:00:00,8,��,3.9,14.5,29,0,0.5,8,��,8.9,35,,
2021/4/12,17:00:00,8,��,3.6,10.3,41.3,0,0.21,8,��,8.3,59,,
2021/4/12,18:00:00,9,��쐼,4.4,11.3,23.8,0,0.04,9,��쐼,8.7,56,,
2021/4/12,19:00:00,9,��쐼,5.7,10.7,25.7,0,0,9,��쐼,10.5,25,,
2021/4/12,20:00:00,9,��쐼,4.2,10.5,51.9,0,0,9,��쐼,10.3,6,,
2021/4/12,21:00:00,8,��,4.1,10.2,68.3,0,0,8,��,6.5,57,,
2021/4/12,22:00:00,5,���쓌,1.5,8.5,79.5,0,0,8,��,6.1,9,,
2021/4/12,23:00:00,3,���k��,2.1,8.2,75.2,0,0,10,�쐼,11.1,7,,
2021/4/12,0:00:00,9,��쐼,1.1,8.1,79.6,0,0,4,��,3.8,0,,
2021/4/13,1:00:00,9,��쐼,1.9,8.9,77,0,0,8,��,5.5,12,,
2021/4/13,2:00:00,9,��쐼,3.7,10.5,70.3,0,0,9,��쐼,8,55,,
2021/4/13,3:00:00,9,��쐼,3,11,66.6,0,0,8,��,7.5,9,,
2021/4/13,4:00:00,7,��쓌,2.8,9.5,71.1,0,0,7,��쓌,5,27,,
2021/4/13,5:00:00,6,�쓌,2.4,7.2,79.9,0,0,6,�쓌,4.9,20,,
2021/4/13,6:00:00,5,���쓌,3.4,7,82.3,0,0.02,6,�쓌,4.8,10,,
2021/4/13,7:00:00,9,��쐼,3.2,10.6,68,0,0.05,10,�쐼,7.4,38,,
2021/4/13,8:00:00,9,��쐼,3.4,10.2,69,0,0.13,10,�쐼,6.4,55,,
2021/4/13,9:00:00,9,��쐼,3.8,10.6,68,0,0.18,9,��쐼,9.3,58,,
2021/4/13,10:00:00,8,��,4.5,12,63.8,0,0.36,8,��,11.8,21,,
2021/4/13,11:00:00,9,��쐼,6.1,10.7,65.7,0,0.38,8,��,12.1,55,,
2021/4/13,12:00:00,8,��,7.2,9,76,0,0.22,8,��,12.9,50,,
2021/4/13,13:00:00,8,��,6.5,9.4,76.4,0,0.19,9,��쐼,12.3,41,,
2021/4/13,14:00:00,8,��,7.7,8.9,85.2,0,0.33,8,��,19.6,17,,
2021/4/13,15:00:00,8,��,7.4,8.2,89.4,0,0.13,7,��쓌,14.3,52,,
2021/4/13,16:00:00,9,��쐼,7.5,10.1,84.1,0,0.1,8,��,15.7,42,,
2021/4/13,17:00:00,9,��쐼,7.6,10.2,84.7,0,0.08,8,��,17.2,10,,
2021/4/13,18:00:00,8,��,6.7,8.8,92.3,0,0.02,9,��쐼,18.9,9,,
2021/4/13,19:00:00,8,��,8.7,8.8,92.6,0,0,10,�쐼,17.2,44,,
2021/4/13,20:00:00,8,��,7.6,8.5,96.6,0,0,7,��쓌,17.1,4,,
2021/4/13,21:00:00,8,��,9.8,9.1,96.7,0.5,0,9,��쐼,20,40,,
2021/4/13,22:00:00,9,��쐼,8.3,9.4,96.3,0,0,9,��쐼,17.4,2,,
2021/4/13,23:00:00,9,��쐼,4.7,9,96.8,0,0,9,��쐼,15,21,,
2021/4/13,0:00:00,10,�쐼,4.7,10.3,94.8,0,0,10,�쐼,10.3,18,,
2021/4/14,1:00:00,9,��쐼,3.8,10.5,90.6,0,0,8,��,9.5,41,,
2021/4/14,2:00:00,9,��쐼,3.1,10.9,85.1,0,0,8,��,7.3,3,,
2021/4/14,3:00:00,9,��쐼,4.2,11.1,80.8,0.5,0,9,��쐼,8,15,,
2021/4/14,4:00:00,10,�쐼,2.6,10.8,75.4,0,0,10,�쐼,8.6,45,,
2021/4/14,5:00:00,16,�k,2.6,3.9,91.9,0,0.01,1,�k�k��,4.7,28,,
2021/4/14,6:00:00,1,�k�k��,2.3,7.4,90.6,0,0.11,16,�k,3.3,55,,
2021/4/14,7:00:00,16,�k,0.3,13,65.8,0,0.28,14,�k��,2.5,50,,
2021/4/14,8:00:00,3,���k��,2.3,12.4,63.5,0,0.34,7,��쓌,6.7,36,,
2021/4/14,9:00:00,12,��,4.7,14.7,47.2,0,0.42,11,���쐼,12.1,32,,
2021/4/14,10:00:00,12,��,6.8,16.7,33.8,0,0.86,13,���k��,11.7,43,,
2021/4/14,11:00:00,13,���k��,7.2,13.3,26.5,0,0.42,12,��,11.7,11,,
2021/4/14,12:00:00,11,���쐼,2.8,12.4,29.9,0,0.06,12,��,10.9,6,,
2021/4/14,13:00:00,2,�k��,2.6,12.4,48.2,0,0.07,12,��,5.9,6,,
2021/4/14,14:00:00,6,�쓌,1.5,10.2,42,0,0.16,7,��쓌,4.1,48,,
2021/4/14,15:00:00,6,�쓌,0.9,9.5,53.9,0,0.18,7,��쓌,3.4,17,,
2021/4/14,16:00:00,4,��,4.4,5.6,82.2,0,0.14,4,��,7.3,50,,
2021/4/14,17:00:00,16,�k,3.9,8.3,43.6,0,0.07,16,�k,7.8,58,,
2021/4/14,18:00:00,15,�k�k��,2.6,6.9,41.8,0,0.03,15,�k�k��,8,45,,
2021/4/14,19:00:00,14,�k��,2.7,5.6,50.1,0,0,15,�k�k��,6.4,59,,
2021/4/14,20:00:00,15,�k�k��,1.9,4.6,48.5,0,0,15,�k�k��,7.2,0,,
2021/4/14,21:00:00,14,�k��,3,3.9,47.1,0,0,15,�k�k��,8.1,47,,
2021/4/14,22:00:00,13,���k��,3.3,3.1,49.7,0,0,13,���k��,7,23,,
2021/4/14,23:00:00,14,�k��,2.5,2.7,53.6,0,0,14,�k��,6.7,34,,
2021/4/14,0:00:00,14,�k��,2.3,1.8,55.4,0,0,12,��,4.8,48,,
2021/4/15,1:00:00,14,�k��,2.1,0.2,60.3,0,0,16,�k,4.4,13,,
2021/4/15,2:00:00,14,�k��,1.5,-4.3,75.9,0,0,15,�k�k��,3.6,15,,
2021/4/15,3:00:00,13,���k��,0.7,-4.1,81,0,0,14,�k��,3.1,15,,
2021/4/15,4:00:00,12,��,2.3,-5.8,88.6,0,0,12,��,2.8,53,,
2021/4/15,5:00:00,13,���k��,1.6,-6.9,86.4,0,0.01,12,��,3.2,5,,
2021/4/15,6:00:00,12,��,1.4,-1.9,82.8,0,0.12,12,��,2.8,8,,
2021/4/15,7:00:00,9,��쐼,3.3,3.3,57.2,0,0.34,7,��쓌,6.2,0,,
2021/4/15,8:00:00,6,�쓌,3.5,5.3,58.2,0,0.55,8,��,7,12,,
2021/4/15,9:00:00,12,��,5.9,8.8,34.5,0,0.73,12,��,10.9,27,,
2021/4/15,10:00:00,12,��,5.8,9.8,31.2,0,0.77,12,��,10.5,57,,
2021/4/15,11:00:00,12,��,4.7,10.5,29.3,0,0.99,11,���쐼,11.9,22,,
2021/4/15,12:00:00,12,��,7,9.4,33.8,0,0.92,12,��,11.5,27,,
2021/4/15,13:00:00,11,���쐼,1.8,9,35.1,0,0.65,13,���k��,10.6,30,,
2021/4/15,14:00:00,11,���쐼,7.4,7.9,49.5,0,0.7,12,��,12.9,59,,
2021/4/15,15:00:00,12,��,6.8,8.8,44.8,0,0.46,11,���쐼,12.4,1,,
2021/4/15,16:00:00,13,���k��,3.3,9.4,40.4,0,0.51,13,���k��,9,2,,
2021/4/15,17:00:00,13,���k��,4.9,8.8,41.7,0,0.3,12,��,7.4,53,,
2021/4/15,18:00:00,11,���쐼,1.6,6.1,48.2,0,0.07,12,��,7.5,4,,
2021/4/15,19:00:00,6,�쓌,0.4,1.1,75.1,0,0,8,��,4.6,5,,
2021/4/15,20:00:00,-3.1,#N/A,82.7,0,0,,,,,,,,
2021/4/15,21:00:00,13,���k��,1.3,-3.6,84,0,0,13,���k��,2.2,58,,
2021/4/15,22:00:00,12,��,1.6,-2.9,90.8,0,0,12,��,3.4,8,,
2021/4/15,23:00:00,13,���k��,1,-3.7,87.8,0,0,13,���k��,3.5,35,,
2021/4/15,0:00:00,15,�k�k��,1,-3.1,92.1,0,0,13,���k��,4,24,,
2021/4/16,1:00:00,14,�k��,1.8,-4,92,0,0,13,���k��,3.4,28,,
2021/4/16,2:00:00,13,���k��,2.5,-3.5,91.7,0,0,12,��,3.7,58,,
2021/4/16,3:00:00,14,�k��,0.8,-3.8,89.2,0,0,12,��,4.1,2,,
2021/4/16,4:00:00,13,���k��,1.4,-4.8,92.6,0,0,13,���k��,2.9,44,,
2021/4/16,5:00:00,13,���k��,2.2,-4.8,94.8,0,0.01,13,���k��,3.3,48,,
2021/4/16,6:00:00,14,�k��,0.6,-1.3,88.7,0,0.12,13,���k��,2.9,0,,
2021/4/16,7:00:00,3,���k��,1.2,4,72.9,0,0.3,12,��,2,32,,
2021/4/16,8:00:00,4,��,1.5,7.4,54.4,0,0.5,4,��,2.8,59,,
2021/4/16,9:00:00,6,�쓌,2.4,6,46.5,0,0.66,6,�쓌,4.5,55,,
2021/4/16,10:00:00,5,���쓌,2.9,7.1,51.9,0,0.86,5,���쓌,5.2,22,,
2021/4/16,11:00:00,5,���쓌,3,8.4,61.4,0,0.86,6,�쓌,5.5,48,,
2021/4/16,12:00:00,7,��쓌,4.1,10.3,54.6,0,0.88,7,��쓌,7.8,40,,
2021/4/16,13:00:00,8,��,6.1,10.3,38.9,0,0.71,8,��,13.2,37,,
2021/4/16,14:00:00,8,��,6.2,9.1,46.2,0,0.73,7,��쓌,10.7,22,,
2021/4/16,15:00:00,8,��,7.2,7.6,57.5,0,0.36,8,��,13.7,25,,
2021/4/16,16:00:00,8,��,4.1,7.6,63.9,0,0.21,9,��쐼,11.7,44,,
2021/4/16,17:00:00,8,��,6.2,7,70.1,0,0.15,8,��,12.9,35,,
2021/4/16,18:00:00,9,��쐼,5.2,6.3,79.4,0,0.03,8,��,11.5,12,,
2021/4/16,19:00:00,8,��,3.8,6.8,83,0,0,9,��쐼,8.5,8,,
2021/4/16,20:00:00,8,��,3.4,7.2,79.9,0,0,8,��,7.9,24,,
2021/4/16,21:00:00,7,��쓌,4.3,6.9,79.5,0,0,8,��,8.6,8,,
2021/4/16,22:00:00,7,��쓌,5.7,6.9,81.1,0,0,8,��,11.2,40,,
2021/4/16,23:00:00,7,��쓌,5,6.6,84.5,0,0,7,��쓌,10.9,9,,
2021/4/16,0:00:00,7,��쓌,4.7,5.8,82.7,0,0,8,��,10.3,41,,
2021/4/17,1:00:00,7,��쓌,4.9,6.8,82.6,0,0,8,��,10.4,34,,
2021/4/17,2:00:00,7,��쓌,6.1,6.8,82.1,0,0,7,��쓌,11.7,53,,
2021/4/17,3:00:00,6,�쓌,3.5,5.1,89.2,0,0,8,��,10.6,1,,
2021/4/17,4:00:00,7,��쓌,2.2,5.6,90.3,0,0,6,�쓌,7.4,16,,
2021/4/17,5:00:00,6,�쓌,2.5,5.9,87.5,0,0.01,7,��쓌,6.3,33,,
2021/4/17,6:00:00,5,���쓌,1.9,6.6,87.9,0,0.03,6,�쓌,8.5,41,,
2021/4/17,7:00:00,7,��쓌,3.7,7.3,92.9,0,0.04,5,���쓌,6.9,13,,
2021/4/17,8:00:00,8,��,4,7.8,93.9,0,0.03,9,��쐼,8.3,48,,
2021/4/17,9:00:00,8,��,4.9,7.4,92,0,0.05,8,��,8.5,10,,
2021/4/17,10:00:00,8,��,4.7,7.8,89.8,0,0.04,8,��,9.4,49,,
2021/4/17,11:00:00,9,��쐼,5.2,7.9,88.6,0,0.04,9,��쐼,10,50,,
2021/4/17,12:00:00,8,��,2.8,7.1,93,0.5,0.04,9,��쐼,9.4,7,,
2021/4/17,13:00:00,7,��쓌,3.4,6,93.8,0,0.04,7,��쓌,6.7,47,,